Atlanta Dekalb, GA

2:36 PM EST on December 16, 2017 (GMT -0500)
Dekalb-Peachtree

Weather History for KPDK - September, 2013

Change the Weather History Date:

Saturday, September 21, 2013

  Actual Average Record
Temperature  
Mean Temperature 68 °F 71 °F  
Max Temperature 72 °F 81 °F 95 °F (2010)
Min Temperature 64 °F 61 °F 51 °F (2006)
Degree Days  
Heating Degree Days 0 0  
Month to date heating degree days 0 0  
Since 1 July heating degree days 1 0  
Cooling Degree Days 3 7  
Month to date cooling degree days 218 200  
Year to date cooling degree days 1487 1657  
Growing Degree Days 18 (Base 50)    
Moisture  
Dew Point 66 °F    
Average Humidity 87    
Maximum Humidity 100    
Minimum Humidity 73    
Precipitation  
Precipitation 1.59 in 0.16 in 3.47 in (2000)
Month to date precipitation 2.29 3.05  
Year to date precipitation 38.75 39.63  
Sea Level Pressure  
Sea Level Pressure 29.80 in    
Wind  
Wind Speed 6 mph (SW)    
Max Wind Speed 15 mph    
Max Gust Speed 22 mph    
Visibility 6 miles    
Events Fog , Rain    
T = Trace of Precipitation, MM = Missing Value Source: NWS Daily Summary

Daily Weather History Graph

Daily Weather History Graph

Search for Another Location

Airport or City:

Trip Planner

Search our weather history database for the weather conditions in past years. The results will help you decide how hot, cold, wet, or windy it might be!

Date:

Astronomy

Sep. 21, 2013 Rise Set
Actual Time 7:24 AM EDT 7:34 PM EDT
Civil Twilight 6:59 AM EDT 7:59 PM EDT
Nautical Twilight 6:30 AM EDT 8:28 PM EDT
Astronomical Twilight 6:01 AM EDT 8:58 PM EDT
Moon 8:54 PM EDT (9/21) 9:33 AM EDT (9/21)
Length of Visible Light 13h 00m
Length of Day
12h 10m
Waning Gibbous, 94% of the Moon is Illuminated
Sep 21
Waning Gibbous
Sep 26
Last Quarter
Oct 4
New
Oct 11
First Quarter
Oct 18
Full

Hourly Weather History & Observations

Time (EDT) Temp. Dew Point Humidity Pressure Visibility Wind Dir Wind Speed Gust Speed Precip Events Conditions
12:53 AM 71.1 °F 63.0 °F 75% 29.91 in 1.5 mi SSW 3.5 mph - N/A   Haze
1:05 AM 69.8 °F 62.6 °F 78% 29.95 in 2.0 mi Calm Calm - N/A   Haze
1:12 AM 71.6 °F 64.4 °F 78% 29.95 in 1.8 mi Calm Calm - N/A   Haze
1:31 AM 69.8 °F 64.4 °F 83% 29.94 in 3.0 mi SSE 3.5 mph - N/A   Haze
1:53 AM 70.0 °F 64.0 °F 81% 29.88 in 4.0 mi SE 3.5 mph - N/A   Haze
2:11 AM 69.8 °F 64.4 °F 83% 29.92 in 2.5 mi Calm Calm - N/A   Haze
2:18 AM 69.8 °F 64.4 °F 83% 29.91 in 8.0 mi SSE 3.5 mph - N/A   Clear
2:53 AM 69.1 °F 64.0 °F 84% 29.86 in 10.0 mi SSW 4.6 mph - N/A   Clear
3:53 AM 69.1 °F 64.0 °F 84% 29.84 in 10.0 mi South 3.5 mph - N/A   Clear
4:53 AM 68.0 °F 64.0 °F 87% 29.82 in 10.0 mi Calm Calm - N/A   Clear
5:53 AM 69.1 °F 64.0 °F 84% 29.82 in 10.0 mi SE 3.5 mph - N/A   Partly Cloudy
6:53 AM 68.0 °F 64.0 °F 87% 29.82 in 10.0 mi SSE 3.5 mph - N/A   Partly Cloudy
7:53 AM 68.0 °F 64.9 °F 90% 29.82 in 8.0 mi SSE 4.6 mph - N/A   Partly Cloudy
8:53 AM 69.1 °F 66.0 °F 90% 29.83 in 8.0 mi Calm Calm - N/A   Mostly Cloudy
9:53 AM 71.1 °F 66.0 °F 84% 29.82 in 9.0 mi South 4.6 mph - N/A   Mostly Cloudy
10:53 AM 71.1 °F 66.9 °F 87% 29.82 in 8.0 mi SSE 5.8 mph - 0.00 in Rain Light Rain
11:53 AM 70.0 °F 68.0 °F 93% 29.81 in 3.0 mi South 8.1 mph - 0.08 in Rain Light Rain
12:53 PM 70.0 °F 68.0 °F 93% 29.78 in 4.0 mi South 5.8 mph - 0.07 in Rain Light Rain
1:07 PM 69.8 °F 68.0 °F 94% 29.81 in 2.0 mi SSE 6.9 mph - 0.05 in Rain Rain
1:11 PM 69.8 °F 68.0 °F 94% 29.80 in 2.0 mi South 6.9 mph - 0.06 in Rain Rain
1:33 PM 69.8 °F 68.0 °F 94% 29.80 in 1.8 mi South 9.2 mph - 0.16 in Rain Rain
1:44 PM 69.8 °F 69.8 °F 100% 29.79 in 2.0 mi South 6.9 mph - 0.21 in Rain Rain
1:53 PM 70.0 °F 69.1 °F 97% 29.75 in 1.5 mi South 6.9 mph - 0.27 in Rain Heavy Rain
2:06 PM 69.8 °F 69.8 °F 100% 29.78 in 0.5 mi SSW 6.9 mph - 0.23 in Fog , Rain Heavy Rain
2:33 PM 69.8 °F 69.8 °F 100% 29.78 in 1.0 mi WSW 9.2 mph - 0.68 in Rain Light Rain
2:41 PM 71.6 °F 69.8 °F 94% 29.77 in 3.0 mi SW 6.9 mph - 0.70 in Rain Light Rain
2:51 PM 71.6 °F 69.8 °F 94% 29.77 in 3.0 mi SSW 10.4 mph - 0.73 in Rain Rain
2:53 PM 71.1 °F 70.0 °F 96% 29.74 in 3.0 mi SSW 13.8 mph - 0.73 in Rain Rain
3:53 PM 69.1 °F 68.0 °F 96% 29.73 in 3.0 mi WSW 4.6 mph - 0.37 in Rain Rain
4:53 PM 66.9 °F 64.9 °F 93% 29.74 in 10.0 mi WNW 13.8 mph 19.6 mph 0.06 in Rain Light Rain
5:24 PM 66.2 °F 64.4 °F 94% 29.75 in 10.0 mi Variable 3.5 mph - 0.01 in Rain Light Rain
5:31 PM 66.2 °F 64.4 °F 94% 29.76 in 10.0 mi West 4.6 mph - 0.01 in   Overcast
5:53 PM 66.9 °F 64.9 °F 93% 29.74 in 10.0 mi WNW 10.4 mph - 0.01 in   Overcast
6:00 PM 66.2 °F 64.4 °F 94% 29.77 in 10.0 mi West 8.1 mph - N/A   Mostly Cloudy
6:18 PM 66.2 °F 64.4 °F 94% 29.76 in 10.0 mi WNW 4.6 mph - N/A   Partly Cloudy
6:31 PM 66.2 °F 64.4 °F 94% 29.76 in 10.0 mi WNW 5.8 mph - N/A   Scattered Clouds
6:49 PM 66.2 °F 64.4 °F 94% 29.77 in 10.0 mi WNW 4.6 mph - N/A   Mostly Cloudy
6:53 PM 66.0 °F 64.0 °F 93% 29.74 in 10.0 mi NW 9.2 mph - N/A   Mostly Cloudy
7:53 PM 64.9 °F 63.0 °F 93% 29.74 in 10.0 mi West 5.8 mph - N/A   Mostly Cloudy
8:53 PM 64.9 °F 63.0 °F 93% 29.75 in 10.0 mi WNW 5.8 mph - N/A   Mostly Cloudy
9:00 PM 64.4 °F 62.6 °F 94% 29.78 in 10.0 mi Calm Calm - N/A   Clear
9:53 PM 64.9 °F 63.0 °F 93% 29.75 in 10.0 mi WNW 3.5 mph - N/A   Clear
10:53 PM 64.9 °F 63.0 °F 93% 29.77 in 10.0 mi WNW 4.6 mph - N/A   Clear
11:53 PM 64.0 °F 63.0 °F 96% 29.77 in 10.0 mi NNW 4.6 mph - N/A   Partly Cloudy